sat.trackr.live / text

‹ back to catalog

STARLINK-35252

NORAD 65850 · 2025-221AD

PAYLOAD ACTIVE UNKNOWN

§ Identity

Operator
Country
US
Launch date
2025-09-29
Launch site
AFWTR
Launch vehicle
Mass (kg)
RCS (m²)

Purposes: comms

External: N2YO · Heavens-Above · Gunter

§ Orbital elements

Epoch: 2026-09-20T08:59:30.507360Z

Period
93.85 min
Inclination
53.1576°
Eccentricity
0.0001600
Mean motion
15.34385757 rev/d
Perigee alt
461.7 km
Apogee alt
463.8 km
Semi-major
6,840.9 km
B*
3.4367e-4
RAAN
262.4151°
Arg perigee
86.3459°
Mean anomaly
273.7726°
Rev number
5,591

§ Raw data

STARLINK-352521 65850U 25221AD  26263.37465865  .00011247  00000+0  34367-3 0  99992 65850  53.1576 262.4151 0001600  86.3459 273.7726 15.34385757 55918

JSON: /api/v1/satellites/65850 · /tle

For live sub-satellite position, see the globe view (requires WebGL).

§ Visibility from observer

Set your observer location to see the next 7 days of passes ≥ 10°. The values pass through the URL so the page stays shareable.

No JS? Fill the form by hand. The geolocation button needs JavaScript.